User: anonymous   Login
Location: Muenchen
(48.1800°N, 11.5800°E)
Time: 19:10:39
(UTC+02:00)
Language:

Cosmos 2233 Rocket - Orbit

View from above orbital plane
View from above orbital plane
View from above satellite
View from above satellite

Ground track
Ground track

The orbit data is extracted from the following two-line orbital elements,

1 22488U 93008B   16274.50169221  .00000133  00000-0  11755-3 0  9999
2 22488  82.9393 271.6743 0024274 230.8352 239.8969 13.77705677188500
Epoch (UTC): 30 September 2016 12:02:26
Eccentricity: 0.0024274
inclination: 82.9393°
perigee height: 954 km
apogee height: 990 km
right ascension of ascending node: 271.6743°
argument of perigee: 230.8352°
revolutions per day: 13.77705677
mean anomaly at epoch: 239.8969°
orbit number at epoch: 18850

The dashed part of the orbit path shows where the satellite is in the earth's shadow,  

DLR